Pascagoula, MS

4:15 AM CDT on May 26, 2017 (GMT -0500)
Lott International

Weather History for KPQL - January, 2013

Change the Weather History Date:

Wednesday, January 2, 2013

  Actual Average Record
Temperature  
Mean Temperature 50 °F -  
Max Temperature 55 °F 60 °F 80 °F (2006)
Min Temperature 44 °F 42 °F 20 °F (1984)
Degree Days  
Heating Degree Days 16    
Moisture  
Dew Point 45 °F    
Average Humidity 82    
Maximum Humidity 93    
Minimum Humidity 71    
Precipitation  
Precipitation 0.06 in - - ()
Sea Level Pressure  
Sea Level Pressure 30.12 in    
Wind  
Wind Speed 11 mph (North)    
Max Wind Speed 15 mph    
Max Gust Speed 22 mph    
Visibility 10 miles    
Events Rain    
Averages and records for this station are not official NWS values.
T = Trace of Precipitation, MM = Missing Value Source: NWS Daily Summary

Daily Weather History Graph

Daily Weather History Graph

Search for Another Location

Airport or City:

Trip Planner

Search our weather history database for the weather conditions in past years. The results will help you decide how hot, cold, wet, or windy it might be!

Date:

Astronomy

Jan. 02, 2013 Rise Set
Actual Time 6:51 AM CST 5:05 PM CST
Civil Twilight 6:25 AM CST 5:31 PM CST
Nautical Twilight 5:55 AM CST 6:01 PM CST
Astronomical Twilight 5:25 AM CST 6:31 PM CST
Moon 10:12 PM CST (1/2) 9:55 AM CST (1/2)
Length of Visible Light 11h 06m
Length of Day
10h 14m
Waning Gibbous, 75% of the Moon is Illuminated
Jan 2
Waning Gibbous
Jan 4
Last Quarter
Jan 11
New
Jan 18
First Quarter
Jan 26
Full

Hourly Weather History & Observations

Time (CST) Temp. Windchill Dew Point Humidity Pressure Visibility Wind Dir Wind Speed Gust Speed Precip Events Conditions
12:53 AM 55.0 °F - 51.1 °F 86% 30.03 in 10.0 mi North 8.1 mph - N/A   Overcast
1:35 AM 55.4 °F - 51.8 °F 88% 30.03 in 10.0 mi North 10.4 mph - N/A   Overcast
1:53 AM 54.0 °F - 51.1 °F 90% 30.04 in 10.0 mi North 12.7 mph - N/A   Overcast
2:26 AM 53.6 °F - 50.0 °F 88% 30.04 in 10.0 mi North 12.7 mph 21.9 mph N/A   Overcast
2:42 AM 53.6 °F - 48.2 °F 82% 30.04 in 10.0 mi North 13.8 mph - N/A   Overcast
2:53 AM 53.1 °F - 50.0 °F 89% 30.06 in 10.0 mi North 9.2 mph 16.1 mph N/A   Overcast
3:53 AM 53.1 °F - 48.0 °F 83% 30.05 in 10.0 mi North 12.7 mph 18.4 mph N/A   Overcast
4:53 AM 52.0 °F - 48.0 °F 86% 30.05 in 10.0 mi NNE 12.7 mph 20.7 mph N/A   Overcast
5:29 AM 51.8 °F - 46.4 °F 82% 30.07 in 10.0 mi North 9.2 mph - N/A   Mostly Cloudy
5:40 AM 51.8 °F - 46.4 °F 82% 30.07 in 10.0 mi North 11.5 mph - N/A   Scattered Clouds
6:26 AM 51.8 °F - 46.4 °F 82% 30.08 in 10.0 mi North 10.4 mph - N/A   Mostly Cloudy
6:35 AM 51.8 °F - 46.4 °F 82% 30.08 in 10.0 mi North 8.1 mph - N/A   Scattered Clouds
6:42 AM 51.8 °F - 46.4 °F 82% 30.09 in 10.0 mi North 8.1 mph - N/A   Mostly Cloudy
6:51 AM 51.8 °F - 46.4 °F 82% 30.09 in 10.0 mi North 13.8 mph - N/A   Mostly Cloudy
6:53 AM 51.1 °F - 46.0 °F 83% 30.10 in 10.0 mi North 12.7 mph - N/A   Mostly Cloudy
7:14 AM 51.8 °F - 46.4 °F 82% 30.11 in 10.0 mi North 12.7 mph - N/A   Partly Cloudy
7:53 AM 52.0 °F - 46.0 °F 80% 30.12 in 10.0 mi North 8.1 mph - N/A   Scattered Clouds
8:50 AM 51.8 °F - 46.4 °F 82% 30.14 in 10.0 mi North 13.8 mph - N/A   Overcast
8:53 AM 51.1 °F - 46.0 °F 83% 30.14 in 10.0 mi North 12.7 mph - N/A   Overcast
9:53 AM 52.0 °F - 46.0 °F 80% 30.16 in 10.0 mi NNW 9.2 mph - N/A   Mostly Cloudy
10:36 AM 51.8 °F - 44.6 °F 76% 30.15 in 10.0 mi North 12.7 mph - N/A   Mostly Cloudy
10:53 AM 52.0 °F - 45.0 °F 77% 30.15 in 10.0 mi North 10.4 mph - N/A   Overcast
11:45 AM 51.8 °F - 44.6 °F 76% 30.13 in 10.0 mi North 13.8 mph - N/A   Overcast
11:53 AM 51.1 °F - 43.0 °F 74% 30.13 in 10.0 mi North 13.8 mph - N/A   Overcast
12:04 PM 51.8 °F - 44.6 °F 76% 30.12 in 10.0 mi North 15.0 mph - N/A   Overcast
12:25 PM 51.8 °F - 42.8 °F 71% 30.09 in 10.0 mi NNE 9.2 mph - N/A   Overcast
12:53 PM 50.0 °F - 43.0 °F 77% 30.10 in 10.0 mi North 12.7 mph - N/A   Overcast
1:53 PM 51.1 °F - 43.0 °F 74% 30.09 in 10.0 mi NNE 11.5 mph - 0.00 in   Overcast
3:53 PM 50.0 °F - 43.0 °F 77% 30.13 in 10.0 mi North 11.5 mph - N/A   Overcast
4:53 PM 50.0 °F - 43.0 °F 77% 30.17 in 10.0 mi NNW 8.1 mph - 0.00 in   Overcast
5:53 PM 48.9 °F - 42.1 °F 77% 30.15 in 10.0 mi NNE 10.4 mph - N/A   Overcast
6:53 PM 48.0 °F - 42.1 °F 80% 30.16 in 10.0 mi North 12.7 mph - N/A   Overcast
7:53 PM 48.0 °F - 42.1 °F 80% 30.17 in 10.0 mi North 11.5 mph - N/A   Overcast
8:53 PM 46.9 °F - 41.0 °F 80% 30.19 in 10.0 mi North 9.2 mph - N/A   Overcast
9:53 PM 46.0 °F 41.9 °F 42.1 °F 86% 30.19 in 10.0 mi North 8.1 mph - 0.00 in Rain Light Rain
10:41 PM 44.6 °F 38.4 °F 42.8 °F 93% 30.19 in 8.0 mi North 12.7 mph 17.3 mph 0.00 in Rain Light Rain
10:53 PM 45.0 °F 40.6 °F 42.1 °F 90% 30.20 in 8.0 mi NNE 8.1 mph - 0.00 in Rain Light Rain
11:27 PM 44.6 °F 39.7 °F 42.8 °F 93% 30.20 in 6.0 mi North 9.2 mph - 0.02 in Rain Light Rain
11:53 PM 44.1 °F 38.6 °F 41.0 °F 89% 30.20 in 5.0 mi North 10.4 mph - 0.06 in Rain Rain